Home   Weather   Kingston   Past weeks
Flag for Canada

Past Weather in Kingston, Ontario, Canada — Yesterday and Last 2 Weeks

Now
-4 °F

Light snow. Ice fog.


Feels Like: -28 °F
Forecast: 6 / -4 °F
Wind: 21 mph from Northeast

Location: Kingston

Current Time: Jan 20, 2019 at 12:03:10 am

Latest Report: Jan 19, 2019 at 11:00 pm


Visibility: 1 mi

Pressure: 30.03 "Hg

Humidity: 77%

Dew Point: -9 °F

Location of KingstonLocation

Past Weather in Kingston — Graph

°F

Kingston Temperature Yesterday

Maximum temperature yesterday: -2 °F (at 6:00 am)
Minimum temperature yesterday: -6 °F (at 9:00 am)
Average temperature yesterday: -3 °F

High & Low Weather Summary for the Past Weeks

 TemperatureHumidityPressure
High39 °F (Jan 8, 9:00 am)100% (Jan 4, 10:00 pm)30.63 "Hg (Jan 4, 10:00 pm)
Low-6 °F (Jan 19, 9:00 am)38% (Jan 12, 1:00 pm)29.51 "Hg (Jan 8, 10:43 pm)
Average21 °F74%30.11 "Hg
* Reported Jan 4 10:00 pm — Jan 19 10:00 pm, Kingston. Weather by CustomWeather, © 2019

Note: Actual official high and low records may vary slightly from our data, if they occured in-between our weather recording intervals... More about our weather records

Advertising

Kingston Weather History for the Previous 24 Hours

Scroll right to see more
 ConditionsComfort  
Time TempWeatherWind HumidityBarometerVisibility
10:00 pm
Sat, Jan 19
-4 °FLight snow. Ice fog.20 mph77%30.08 "Hg1 mi
9:39 pm-4 °FLight snow. Ice fog.18 mph77%30.10 "Hg1 mi
9:00 pm-4 °FLight snow. Ice fog.20 mph77%30.11 "Hg1 mi
8:00 pm-4 °FLight snow. Ice fog.18 mph77%30.16 "Hg1 mi
7:59 pm-4 °FLight snow. Ice fog.20 mph77%30.16 "Hg1 mi
6:00 pm-2 °FLight snow. Ice fog.16 mph77%30.22 "Hg1 mi
5:51 pm-2 °FLight snow. Ice fog.18 mph71%30.22 "Hg1 mi
5:00 pm-2 °FLight snow. Ice fog.17 mph71%30.24 "Hg1 mi
4:00 pm-2 °FLight snow. Ice fog.16 mph71%30.29 "Hg1 mi
3:48 pm-2 °FLight snow. Ice fog.18 mph71%30.29 "Hg1 mi
3:00 pm-2 °FLight snow. Ice fog.14 mph71%30.31 "Hg1 mi
2:31 pm-2 °FLight snow. Ice fog.15 mph71%30.31 "Hg1 mi
2:00 pm-4 °FLight snow. Ice fog.17 mph71%30.29 "Hg1 mi
1:00 pm-4 °FLight snow. Ice fog.12 mph71%30.32 "Hg1 mi
12:21 pm-4 °FLight snow. Partly sunny.12 mph59%30.34 "Hg2 mi
11:00 am-4 °FOvercast.14 mph54%30.40 "Hg15 mi
10:00 am-4 °FOvercast.16 mph54%30.43 "Hg15 mi
9:00 am-6 °FMore clouds than sun.14 mph59%30.44 "Hg15 mi
8:00 am-4 °FMostly cloudy.12 mph54%30.44 "Hg15 mi
7:00 am-4 °FMostly cloudy.14 mph59%30.41 "Hg15 mi
6:00 am-2 °FMostly cloudy.12 mph54%30.37 "Hg15 mi
Weather by CustomWeather, © 2019

See weather overview